When you browse on this site, cookies collect data to enhance your experience and personalize the content and advertising you see.
Visit our Privacy Policy to learn more. By continuing to use the site, you agree to this use of cookies and data.
  • Em Portugal
  • Lista de países
  • Para 7 dias
  • Temperatura da água
  • Mapas de satélite
  • Mapa do tempo
  • Widgets de tempo
  • user-avatar
    Iniciar Sessão

    Previsão horária em Barra

    Hoje, 20 Julho, Sábado

    Tempo Temperatura Precipitação Vento Pressão Humidade
    00:00 +13°C° 0 mm 2 m/s 752 mmHg 69%
    01:00 +13°C° 0 mm 2 m/s 752 mmHg 69%
    02:00 +13°C° 0 mm 2 m/s 752 mmHg 70%
    03:00 +13°C° 0 mm 2 m/s 752 mmHg 72%
    04:00 +13°C° 0 mm 2 m/s 751 mmHg 72%
    05:00 +13°C° 0 mm 2 m/s 752 mmHg 74%
    06:00 +13°C° 0 mm 2 m/s 752 mmHg 76%
    07:00 +13°C° 0 mm 2 m/s 752 mmHg 78%
    08:00 +15°C° 0 mm 2 m/s 752 mmHg 76%
    09:00 +16°C° 0 mm 2 m/s 753 mmHg 73%
    10:00 +18°C° 0 mm 3 m/s 753 mmHg 71%
    11:00 +19°C° 0.1 mm 3 m/s 752 mmHg 69%
    12:00 +20°C° 0.1 mm 4 m/s 752 mmHg 67%
    13:00 +21°C° 0.1 mm 4 m/s 751 mmHg 65%
    14:00 +21°C° 0 mm 4 m/s 751 mmHg 64%
    15:00 +21°C° 0 mm 4 m/s 751 mmHg 63%
    16:00 +21°C° 0 mm 4 m/s 751 mmHg 62%
    17:00 +19°C° 0 mm 3 m/s 751 mmHg 71%
    18:00 +17°C° 0 mm 3 m/s 751 mmHg 80%
    19:00 +16°C° 0 mm 3 m/s 751 mmHg 88%
    20:00 +15°C° 0 mm 2 m/s 752 mmHg 89%
    21:00 +15°C° 0 mm 2 m/s 752 mmHg 90%
    22:00 +15°C° 0 mm 2 m/s 752 mmHg 91%
    23:00 +15°C° 0 mm 2 m/s 752 mmHg 91%

    Amanhã, 21 Julho, Domingo

    Tempo Temperatura Precipitação Vento Pressão Humidade
    00:00 +15°C° 0 mm 2 m/s 752 mmHg 92%
    01:00 +15°C° 0 mm 2 m/s 751 mmHg 92%
    02:00 +14°C° 0 mm 2 m/s 751 mmHg 92%
    03:00 +14°C° 0 mm 2 m/s 751 mmHg 93%
    04:00 +14°C° 0 mm 2 m/s 750 mmHg 93%
    05:00 +14°C° 0 mm 2 m/s 751 mmHg 94%
    06:00 +13°C° 0 mm 3 m/s 751 mmHg 94%
    07:00 +13°C° 0 mm 3 m/s 751 mmHg 94%
    08:00 +16°C° 0 mm 3 m/s 751 mmHg 85%
    09:00 +19°C° 0 mm 3 m/s 751 mmHg 75%
    10:00 +21°C° 0 mm 3 m/s 752 mmHg 65%
    11:00 +22°C° 0 mm 3 m/s 751 mmHg 63%
    12:00 +22°C° 0 mm 3 m/s 750 mmHg 60%
    13:00 +24°C° 0 mm 3 m/s 749 mmHg 57%
    14:00 +24°C° 0 mm 3 m/s 749 mmHg 59%
    15:00 +22°C° 0 mm 3 m/s 749 mmHg 60%
    16:00 +22°C° 0 mm 3 m/s 748 mmHg 62%
    17:00 +20°C° 0 mm 3 m/s 749 mmHg 71%
    18:00 +18°C° 0 mm 2 m/s 749 mmHg 80%
    19:00 +17°C° 0 mm 2 m/s 750 mmHg 89%
    20:00 +16°C° 0 mm 2 m/s 750 mmHg 91%
    21:00 +16°C° 0 mm 2 m/s 750 mmHg 92%
    22:00 +16°C° 0 mm 2 m/s 751 mmHg 93%
    23:00 +15°C° 0 mm 2 m/s 750 mmHg 93%

    Depois de amanhã, 22 Julho, Segunda-feira

    Tempo Temperatura Precipitação Vento Pressão Humidade
    00:00 +15°C° 0 mm 2 m/s 750 mmHg 94%
    01:00 +15°C° 0 mm 2 m/s 750 mmHg 94%
    02:00 +15°C° 0 mm 2 m/s 750 mmHg 94%
    03:00 +15°C° 0 mm 2 m/s 750 mmHg 94%
    04:00 +15°C° 0 mm 2 m/s 750 mmHg 94%
    05:00 +15°C° 0 mm 2 m/s 750 mmHg 94%
    06:00 +15°C° 0 mm 2 m/s 750 mmHg 95%
    07:00 +15°C° 0 mm 2 m/s 750 mmHg 95%
    08:00 +17°C° 0 mm 2 m/s 751 mmHg 85%
    09:00 +20°C° 0 mm 2 m/s 751 mmHg 76%
    10:00 +22°C° 0 mm 3 m/s 751 mmHg 67%
    11:00 +24°C° 0 mm 3 m/s 750 mmHg 66%
    12:00 +24°C° 0 mm 3 m/s 750 mmHg 65%
    13:00 +25°C° 0 mm 4 m/s 749 mmHg 64%
    14:00 +23°C° 0 mm 4 m/s 749 mmHg 66%
    15:00 +23°C° 0 mm 4 m/s 749 mmHg 67%
    16:00 +23°C° 0 mm 4 m/s 748 mmHg 68%
    17:00 +21°C° 0 mm 4 m/s 749 mmHg 77%
    18:00 +20°C° 0 mm 3 m/s 749 mmHg 85%
    19:00 +18°C° 0 mm 3 m/s 749 mmHg 94%
    20:00 +18°C° 0.1 mm 3 m/s 750 mmHg 94%
    21:00 +18°C° 0.1 mm 3 m/s 750 mmHg 94%
    22:00 +18°C° 0.1 mm 3 m/s 751 mmHg 95%
    23:00 +18°C° 0.1 mm 3 m/s 751 mmHg 95%

    23 Julho, Terça-feira

    Tempo Temperatura Precipitação Vento Pressão Humidade
    00:00 +18°C° 0.1 mm 3 m/s 750 mmHg 94%
    01:00 +18°C° 0.1 mm 3 m/s 750 mmHg 94%
    02:00 +18°C° 0.1 mm 3 m/s 750 mmHg 94%
    03:00 +18°C° 0.1 mm 3 m/s 750 mmHg 94%
    04:00 +18°C° 0.1 mm 3 m/s 750 mmHg 94%
    05:00 +18°C° 0.1 mm 3 m/s 750 mmHg 93%
    06:00 +18°C° 0.1 mm 3 m/s 751 mmHg 92%
    07:00 +18°C° 0.1 mm 3 m/s 751 mmHg 91%
    08:00 +19°C° 0 mm 3 m/s 751 mmHg 84%
    09:00 +21°C° 0 mm 3 m/s 752 mmHg 76%
    10:00 +24°C° 0 mm 3 m/s 752 mmHg 68%
    11:00 +23°C° 0 mm 4 m/s 752 mmHg 68%
    12:00 +23°C° 0 mm 4 m/s 751 mmHg 68%
    13:00 +25°C° 0 mm 4 m/s 751 mmHg 68%
    14:00 +23°C° 0.1 mm 4 m/s 750 mmHg 70%
    15:00 +23°C° 0.1 mm 4 m/s 750 mmHg 72%
    16:00 +23°C° 0.1 mm 4 m/s 750 mmHg 74%
    17:00 +22°C° 0.2 mm 4 m/s 751 mmHg 80%
    18:00 +21°C° 0.2 mm 4 m/s 751 mmHg 87%
    19:00 +19°C° 0.2 mm 3 m/s 751 mmHg 94%
    20:00 +20°C° 0.6 mm 4 m/s 752 mmHg 94%
    21:00 +20°C° 0.6 mm 4 m/s 752 mmHg 94%
    22:00 +20°C° 0.6 mm 4 m/s 753 mmHg 94%
    23:00 +20°C° 0.7 mm 4 m/s 753 mmHg 94%

    24 Julho, Quarta-feira

    Tempo Temperatura Precipitação Vento Pressão Humidade
    00:00 +19°C° 0.7 mm 4 m/s 752 mmHg 94%
    01:00 +19°C° 0.7 mm 4 m/s 752 mmHg 94%
    02:00 +19°C° 0.7 mm 4 m/s 752 mmHg 94%
    03:00 +19°C° 0.7 mm 4 m/s 752 mmHg 94%
    04:00 +19°C° 0.7 mm 4 m/s 752 mmHg 94%
    05:00 +19°C° 0.7 mm 4 m/s 752 mmHg 94%
    06:00 +19°C° 0.7 mm 4 m/s 753 mmHg 94%
    07:00 +19°C° 0.7 mm 4 m/s 753 mmHg 94%
    08:00 +19°C° 0.5 mm 5 m/s 753 mmHg 92%
    09:00 +20°C° 0.5 mm 5 m/s 754 mmHg 90%
    10:00 +20°C° 0.5 mm 5 m/s 754 mmHg 88%
    11:00 +20°C° 0.3 mm 5 m/s 753 mmHg 86%
    12:00 +20°C° 0.3 mm 5 m/s 753 mmHg 85%
    13:00 +21°C° 0.3 mm 4 m/s 752 mmHg 83%
    14:00 +21°C° 0.1 mm 4 m/s 752 mmHg 79%
    15:00 +21°C° 0.1 mm 4 m/s 751 mmHg 75%
    16:00 +22°C° 0.1 mm 4 m/s 751 mmHg 71%
    17:00 +20°C° 0 mm 3 m/s 751 mmHg 76%
    18:00 +19°C° 0 mm 3 m/s 752 mmHg 82%
    19:00 +18°C° 0 mm 3 m/s 752 mmHg 87%
    20:00 +17°C° 0 mm 3 m/s 753 mmHg 88%
    21:00 +17°C° 0 mm 3 m/s 753 mmHg 89%
    22:00 +17°C° 0 mm 3 m/s 753 mmHg 90%
    23:00 +17°C° 0 mm 3 m/s 753 mmHg 90%

    25 Julho, Quinta-feira

    Tempo Temperatura Precipitação Vento Pressão Humidade
    00:00 +16°C° 0 mm 3 m/s 753 mmHg 90%
    01:00 +16°C° 0 mm 3 m/s 752 mmHg 91%
    02:00 +16°C° 0 mm 3 m/s 752 mmHg 90%
    03:00 +16°C° 0 mm 3 m/s 752 mmHg 90%
    04:00 +15°C° 0 mm 4 m/s 752 mmHg 90%
    05:00 +14°C° 0 mm 4 m/s 752 mmHg 90%
    06:00 +14°C° 0 mm 3 m/s 752 mmHg 90%
    07:00 +14°C° 0 mm 3 m/s 752 mmHg 90%
    08:00 +17°C° 0 mm 3 m/s 753 mmHg 81%
    09:00 +19°C° 0 mm 3 m/s 753 mmHg 72%
    10:00 +21°C° 0 mm 3 m/s 753 mmHg 63%
    11:00 +21°C° 0 mm 4 m/s 752 mmHg 63%
    12:00 +21°C° 0 mm 4 m/s 752 mmHg 62%
    13:00 +22°C° 0 mm 4 m/s 751 mmHg 62%
    14:00 +21°C° 0 mm 4 m/s 751 mmHg 64%
    15:00 +21°C° 0 mm 3 m/s 751 mmHg 66%
    16:00 +21°C° 0 mm 3 m/s 751 mmHg 68%
    17:00 +20°C° 0 mm 3 m/s 751 mmHg 73%
    18:00 +19°C° 0 mm 3 m/s 751 mmHg 78%
    19:00 +18°C° 0 mm 2 m/s 752 mmHg 83%
    20:00 +18°C° 0 mm 2 m/s 752 mmHg 84%
    21:00 +17°C° 0 mm 2 m/s 752 mmHg 86%
    22:00 +17°C° 0 mm 2 m/s 753 mmHg 88%
    23:00 +17°C° 0 mm 2 m/s 752 mmHg 87%
    Mostrar mais